HBLVC LSZR-EDJA

Flight info

Callsign HBLVC
Flight time N/A
Altitude 5500
Route ZRE DCT KBT DCT JASIE
Aircraft DA42/L-SBDFGLORVYZ/EB2

Departure

Time 2026-04-14 09:52
Airport Sankt Gallen Altenrhein Airport (LSZR)

Arrival

Time N/A
Airport Memmingen Allgau Airport (EDJA)
Time Latitude Longitude Altitude Speed Heading
2026-04-14 08:56 47.48674 9.56419 1341 ft 0 kts 190°
2026-04-14 09:16 47.48673 9.56419 1335 ft 0 kts 192°
2026-04-14 09:16 47.48661 9.56416 1335 ft 2 kts 191°
2026-04-14 09:17 47.48647 9.56411 1335 ft 4 kts 192°
2026-04-14 09:17 47.48624 9.56384 1335 ft 6 kts 277°
2026-04-14 09:17 47.48632 9.56316 1334 ft 8 kts 279°
2026-04-14 09:17 47.48641 9.56237 1335 ft 8 kts 278°
2026-04-14 09:18 47.48649 9.56159 1335 ft 8 kts 279°
2026-04-14 09:18 47.48659 9.56074 1334 ft 9 kts 279°
2026-04-14 09:18 47.48669 9.55979 1333 ft 10 kts 279°
2026-04-14 09:18 47.48680 9.55879 1334 ft 10 kts 278°
2026-04-14 09:19 47.48689 9.55783 1334 ft 9 kts 279°
2026-04-14 09:19 47.48699 9.55691 1333 ft 9 kts 279°
2026-04-14 09:19 47.48708 9.55602 1335 ft 9 kts 279°
2026-04-14 09:19 47.48716 9.55514 1335 ft 8 kts 272°
2026-04-14 09:20 47.48721 9.55430 1335 ft 8 kts 278°
2026-04-14 09:20 47.48733 9.55346 1334 ft 8 kts 294°
2026-04-14 09:20 47.48744 9.55263 1334 ft 8 kts 279°
2026-04-14 09:20 47.48734 9.55191 1335 ft 5 kts 225°
2026-04-14 09:21 47.48737 9.55167 1334 ft 4 kts 11°
2026-04-14 09:21 47.48746 9.55168 1334 ft 0 kts
2026-04-14 09:39 47.48750 9.55174 1331 ft 2 kts 72°
2026-04-14 09:39 47.48748 9.55222 1332 ft 8 kts 98°
2026-04-14 09:39 47.48739 9.55312 1330 ft 9 kts 99°
2026-04-14 09:39 47.48723 9.55406 1331 ft 10 kts 98°
2026-04-14 09:40 47.48717 9.55510 1330 ft 10 kts 93°
2026-04-14 09:40 47.48705 9.55618 1331 ft 11 kts 98°
2026-04-14 09:40 47.48693 9.55731 1329 ft 11 kts 98°
2026-04-14 09:40 47.48681 9.55848 1330 ft 12 kts 98°
2026-04-14 09:41 47.48669 9.55968 1330 ft 12 kts 99°
2026-04-14 09:41 47.48656 9.56090 1330 ft 12 kts 98°
2026-04-14 09:41 47.48643 9.56214 1332 ft 12 kts 99°
2026-04-14 09:41 47.48629 9.56340 1332 ft 13 kts 100°
2026-04-14 09:42 47.48614 9.56468 1332 ft 13 kts 99°
2026-04-14 09:42 47.48601 9.56598 1333 ft 13 kts 98°
2026-04-14 09:42 47.48588 9.56728 1332 ft 13 kts 98°
2026-04-14 09:42 47.48575 9.56858 1332 ft 13 kts 98°
2026-04-14 09:43 47.48562 9.56989 1333 ft 13 kts 99°
2026-04-14 09:43 47.48552 9.57052 1332 ft 3 kts 164°
2026-04-14 09:43 47.48538 9.57058 1332 ft 0 kts 86°
2026-04-14 09:50 47.48539 9.57068 1331 ft 5 kts 86°
2026-04-14 09:51 47.48511 9.57081 1329 ft 6 kts 187°
2026-04-14 09:51 47.48469 9.57074 1330 ft 6 kts 187°
2026-04-14 09:51 47.48428 9.57066 1332 ft 5 kts 188°
2026-04-14 09:51 47.48401 9.57051 1332 ft 4 kts 275°
2026-04-14 09:52 47.48434 9.56756 1329 ft 61 kts 278°
2026-04-14 09:52 47.48521 9.55942 1427 ft 92 kts 282°
2026-04-14 09:52 47.48663 9.54975 1714 ft 100 kts 284°
2026-04-14 09:52 47.48867 9.53950 1964 ft 105 kts 287°
2026-04-14 09:53 47.49034 9.52919 2229 ft 103 kts 288°
2026-04-14 09:53 47.49493 9.52122 2467 ft 105 kts 333°
2026-04-14 09:53 47.50190 9.52053 2702 ft 103 kts 18°
2026-04-14 09:53 47.50769 9.52797 2706 ft 121 kts 62°
2026-04-14 09:54 47.50994 9.54060 2699 ft 133 kts 78°
2026-04-14 09:54 47.51170 9.55438 2698 ft 139 kts 79°
2026-04-14 09:54 47.51346 9.56826 2697 ft 142 kts 78°
2026-04-14 09:54 47.51531 9.58290 2696 ft 144 kts 79°
2026-04-14 09:55 47.51716 9.59757 2697 ft 146 kts 78°
2026-04-14 09:55 47.51904 9.61235 2698 ft 147 kts 78°
2026-04-14 09:55 47.52092 9.62721 2697 ft 147 kts 78°
2026-04-14 09:55 47.52280 9.64217 2695 ft 148 kts 78°
2026-04-14 09:56 47.52468 9.65716 2695 ft 148 kts 78°
2026-04-14 09:56 47.52657 9.67215 2694 ft 148 kts 79°
2026-04-14 09:56 47.52846 9.68717 2692 ft 148 kts 77°
2026-04-14 09:56 47.53270 9.70080 2697 ft 146 kts 56°
2026-04-14 09:57 47.53846 9.71317 2694 ft 146 kts 54°
2026-04-14 09:57 47.54432 9.72551 2695 ft 146 kts 54°
2026-04-14 09:57 47.55020 9.73788 2692 ft 148 kts 54°
2026-04-14 09:57 47.55570 9.74941 2691 ft 148 kts 53°
2026-04-14 09:58 47.56170 9.76179 2733 ft 146 kts 49°
2026-04-14 09:58 47.56855 9.77257 2788 ft 144 kts 44°
2026-04-14 09:58 47.57563 9.78303 2841 ft 143 kts 43°
2026-04-14 09:58 47.58267 9.79344 2896 ft 143 kts 44°
2026-04-14 09:59 47.58893 9.80485 2939 ft 143 kts 61°
2026-04-14 09:59 47.59180 9.81887 2977 ft 144 kts 82°
2026-04-14 09:59 47.59254 9.83352 2974 ft 144 kts 85°
2026-04-14 09:59 47.59314 9.84836 2976 ft 145 kts 85°
2026-04-14 10:00 47.59363 9.86336 2969 ft 147 kts 92°
2026-04-14 10:00 47.59107 9.87805 2981 ft 148 kts 98°
2026-04-14 10:00 47.59086 9.89319 2978 ft 148 kts 82°
2026-04-14 10:00 47.59411 9.90749 3002 ft 145 kts 62°
2026-04-14 10:01 47.59872 9.92057 3007 ft 145 kts 63°
2026-04-14 10:01 47.60425 9.93275 3073 ft 139 kts 30°
2026-04-14 10:01 47.61346 9.93310 3026 ft 142 kts 328°
2026-04-14 10:01 47.61776 9.92027 2984 ft 146 kts 268°
2026-04-14 10:02 47.61286 9.90762 2996 ft 148 kts 214°
2026-04-14 10:02 47.60281 9.90570 2943 ft 152 kts 161°
2026-04-14 10:02 47.59566 9.91615 2928 ft 150 kts 109°
2026-04-14 10:02 47.59640 9.93091 2986 ft 143 kts 66°
2026-04-14 10:03 47.60007 9.94450 3004 ft 145 kts 78°
2026-04-14 10:03 47.59694 9.95801 3037 ft 147 kts 141°
2026-04-14 10:03 47.58734 9.95921 3006 ft 149 kts 211°
2026-04-14 10:03 47.58261 9.94654 2989 ft 147 kts 270°
2026-04-14 10:04 47.58721 9.93380 2991 ft 144 kts 328°
2026-04-14 10:04 47.59689 9.93249 2963 ft 147 kts 19°
2026-04-14 10:04 47.60399 9.94310 2899 ft 151 kts 64°
2026-04-14 10:04 47.60817 9.95713 2971 ft 146 kts 65°
2026-04-14 10:05 47.61206 9.97096 2979 ft 147 kts 84°
2026-04-14 10:05 47.60503 9.97491 3062 ft 141 kts 225°
2026-04-14 10:05 47.60695 9.96270 2934 ft 146 kts 341°
2026-04-14 10:05 47.61476 9.96979 2919 ft 149 kts 61°
2026-04-14 10:06 47.61946 9.98327 2959 ft 147 kts 62°
2026-04-14 10:06 47.62676 9.98765 2992 ft 141 kts 317°
2026-04-14 10:06 47.62518 9.97497 2867 ft 152 kts 198°
2026-04-14 10:06 47.61929 9.98323 3098 ft 136 kts 74°
2026-04-14 10:07 47.62326 9.99677 2967 ft 146 kts 64°
2026-04-14 10:07 47.62755 10.01028 2960 ft 147 kts 62°
2026-04-14 10:07 47.63315 10.02282 2957 ft 146 kts 51°
2026-04-14 10:07 47.63933 10.03460 2964 ft 144 kts 51°
2026-04-14 10:08 47.64557 10.04637 2969 ft 145 kts 51°
2026-04-14 10:08 47.65182 10.05812 2970 ft 145 kts 51°
2026-04-14 10:08 47.65781 10.07031 2971 ft 147 kts 59°
2026-04-14 10:08 47.66217 10.08402 3015 ft 144 kts 66°
2026-04-14 10:09 47.66578 10.09757 3128 ft 139 kts 68°
2026-04-14 10:09 47.66922 10.11078 3243 ft 136 kts 68°
2026-04-14 10:09 47.67231 10.12399 3347 ft 134 kts 75°
2026-04-14 10:09 47.67404 10.13726 3466 ft 130 kts 78°
2026-04-14 10:10 47.67563 10.15089 3471 ft 138 kts 79°
2026-04-14 10:10 47.67672 10.16023 3468 ft 142 kts 78°
2026-04-14 10:10 47.67843 10.17438 3461 ft 145 kts 76°
2026-04-14 10:10 47.68166 10.18853 3456 ft 143 kts 60°
2026-04-14 10:11 47.68814 10.19987 3449 ft 142 kts 33°
2026-04-14 10:11 47.69588 10.20884 3461 ft 142 kts 49°
2026-04-14 10:11 47.70110 10.22115 3472 ft 143 kts 59°
2026-04-14 10:11 47.70592 10.23423 3471 ft 145 kts 60°
2026-04-14 10:12 47.71061 10.24757 3472 ft 146 kts 61°
2026-04-14 10:12 47.71520 10.26086 3463 ft 140 kts 62°
2026-04-14 10:12 47.71938 10.27305 3444 ft 127 kts 60°
2026-04-14 10:12 47.72319 10.28440 3385 ft 119 kts 62°
2026-04-14 10:13 47.72651 10.29518 3400 ft 109 kts 64°
2026-04-14 10:13 47.72925 10.30491 3385 ft 107 kts 66°
2026-04-14 10:13 47.72769 10.31539 3411 ft 108 kts 139°
2026-04-14 10:13 47.72092 10.31561 3420 ft 108 kts 223°
2026-04-14 10:14 47.71965 10.30589 3426 ft 101 kts 301°
2026-04-14 10:14 47.72545 10.30204 3490 ft 93 kts 17°
2026-04-14 10:14 47.72958 10.30946 3396 ft 102 kts 53°
2026-04-14 10:14 47.73539 10.31108 3442 ft 90 kts 326°
2026-04-14 10:15 47.73688 10.30297 3471 ft 90 kts 245°
2026-04-14 10:15 47.73133 10.29911 3410 ft 97 kts 168°
2026-04-14 10:15 47.72758 10.30643 3347 ft 96 kts 81°
2026-04-14 10:15 47.72853 10.31115 3389 ft 90 kts 69°
2026-04-14 10:16 47.72996 10.31738 3403 ft 86 kts 58°
2026-04-14 10:16 47.73167 10.32655 3343 ft 94 kts 70°
2026-04-14 10:16 47.73305 10.33568 3431 ft 90 kts 77°
2026-04-14 10:16 47.73456 10.34500 3432 ft 94 kts 67°
2026-04-14 10:17 47.73677 10.35458 3486 ft 103 kts 61°
2026-04-14 10:17 47.73915 10.36521 3519 ft 112 kts 63°
2026-04-14 10:17 47.74201 10.37590 3584 ft 116 kts 56°
2026-04-14 10:17 47.74586 10.38686 3564 ft 124 kts 50°
2026-04-14 10:18 47.74467 10.41260 3528 ft 136 kts 121°
2026-04-14 10:18 47.73655 10.41877 3580 ft 136 kts 171°
2026-04-14 10:18 47.72742 10.41495 3527 ft 138 kts 203°
2026-04-14 10:19 47.72070 10.40470 3355 ft 144 kts 240°
2026-04-14 10:19 47.71980 10.39064 3372 ft 135 kts 282°
2026-04-14 10:19 47.72532 10.38022 3379 ft 130 kts 326°
2026-04-14 10:19 47.73398 10.37692 3442 ft 127 kts 340°
2026-04-14 10:20 47.74089 10.36956 3464 ft 131 kts 313°
2026-04-14 10:20 47.74760 10.36008 3397 ft 131 kts 323°
2026-04-14 10:20 47.75522 10.35328 3458 ft 127 kts 324°
2026-04-14 10:20 47.76285 10.34657 3455 ft 128 kts 325°
2026-04-14 10:21 47.77050 10.33984 3453 ft 131 kts 326°
2026-04-14 10:21 47.77833 10.33288 3457 ft 132 kts 330°
2026-04-14 10:21 47.78633 10.32602 3465 ft 133 kts 336°
2026-04-14 10:21 47.79524 10.32216 3462 ft 134 kts 345°
2026-04-14 10:22 47.80415 10.31798 3471 ft 134 kts 342°
2026-04-14 10:22 47.81299 10.31347 3469 ft 134 kts 341°
2026-04-14 10:22 47.82179 10.30875 3471 ft 134 kts 340°
2026-04-14 10:22 47.83066 10.30395 3468 ft 136 kts 340°
2026-04-14 10:23 47.83951 10.29915 3466 ft 135 kts 340°
2026-04-14 10:23 47.84823 10.29438 3473 ft 134 kts 340°
2026-04-14 10:23 47.85566 10.28624 3457 ft 137 kts 302°
2026-04-14 10:23 47.85685 10.27242 3457 ft 139 kts 256°
2026-04-14 10:24 47.85266 10.25944 3465 ft 139 kts 244°
2026-04-14 10:24 47.84777 10.24697 3465 ft 139 kts 240°
2026-04-14 10:24 47.84278 10.23469 3467 ft 138 kts 240°
2026-04-14 10:24 47.83786 10.22250 3458 ft 138 kts 235°
2026-04-14 10:25 47.82985 10.21547 3456 ft 139 kts 189°
2026-04-14 10:25 47.82055 10.21896 3457 ft 140 kts 143°
2026-04-14 10:25 47.81559 10.23077 3456 ft 139 kts 98°
2026-04-14 10:25 47.81733 10.24445 3469 ft 135 kts 62°
2026-04-14 10:26 47.82179 10.25678 3467 ft 135 kts 58°
2026-04-14 10:26 47.82638 10.26898 3473 ft 135 kts 58°
2026-04-14 10:26 47.83105 10.28127 3469 ft 137 kts 59°
2026-04-14 10:26 47.83575 10.29363 3473 ft 138 kts 58°
2026-04-14 10:27 47.84275 10.30283 3466 ft 135 kts 16°
2026-04-14 10:27 47.85176 10.30183 3463 ft 135 kts 332°
2026-04-14 10:27 47.85755 10.29125 3471 ft 137 kts 287°
2026-04-14 10:27 47.85642 10.27742 3464 ft 140 kts 242°
2026-04-14 10:28 47.84882 10.26872 3466 ft 142 kts 196°
2026-04-14 10:28 47.83894 10.26812 3465 ft 143 kts 178°
2026-04-14 10:28 47.82900 10.26911 3484 ft 143 kts 177°
2026-04-14 10:28 47.81910 10.27021 3475 ft 142 kts 176°
2026-04-14 10:29 47.81013 10.27553 3485 ft 141 kts 135°
2026-04-14 10:29 47.80624 10.28836 3479 ft 139 kts 90°
2026-04-14 10:29 47.80946 10.30153 3481 ft 138 kts 45°
2026-04-14 10:29 47.81774 10.30732 3482 ft 135 kts
2026-04-14 10:30 47.82690 10.30498 3487 ft 136 kts 343°
2026-04-14 10:30 47.83594 10.30070 3486 ft 136 kts 341°
2026-04-14 10:30 47.84482 10.29613 3499 ft 135 kts 340°
2026-04-14 10:30 47.85370 10.29140 3492 ft 135 kts 340°
2026-04-14 10:31 47.86257 10.28660 3494 ft 135 kts 340°
2026-04-14 10:31 47.87142 10.28181 3495 ft 136 kts 340°
2026-04-14 10:31 47.88031 10.27697 3493 ft 136 kts 339°
2026-04-14 10:31 47.88919 10.27213 3500 ft 135 kts 340°
2026-04-14 10:32 47.89810 10.26729 3498 ft 137 kts 339°
2026-04-14 10:32 47.90736 10.26422 3494 ft 136 kts 350°
2026-04-14 10:32 47.91670 10.26210 3494 ft 135 kts 351°
2026-04-14 10:32 47.92594 10.26006 3500 ft 134 kts 351°
2026-04-14 10:33 47.93515 10.25800 3499 ft 133 kts 351°
2026-04-14 10:33 47.94416 10.25599 3497 ft 129 kts 351°
2026-04-14 10:33 47.95288 10.25406 3467 ft 129 kts 351°
2026-04-14 10:33 47.96200 10.25162 3290 ft 136 kts 348°
2026-04-14 10:34 47.97923 10.25348 3086 ft 123 kts 42°
2026-04-14 10:34 47.98390 10.26391 3085 ft 119 kts 58°
2026-04-14 10:34 47.98790 10.27455 3085 ft 115 kts 59°
2026-04-14 10:35 47.99169 10.28485 3086 ft 110 kts 58°
2026-04-14 10:35 47.99635 10.29345 2876 ft 107 kts 22°
2026-04-14 10:35 48.00309 10.29228 2776 ft 95 kts 323°
2026-04-14 10:35 48.00543 10.28357 2555 ft 97 kts 270°
2026-04-14 10:36 48.00298 10.27464 2434 ft 93 kts 240°
2026-04-14 10:36 47.99959 10.26666 2310 ft 92 kts 243°
2026-04-14 10:36 47.99628 10.25835 2156 ft 94 kts 243°
2026-04-14 10:36 47.99303 10.25013 2066 ft 83 kts 243°
2026-04-14 10:37 47.99072 10.24430 2062 ft 64 kts 239°
2026-04-14 10:37 47.98784 10.23715 2212 ft 86 kts 242°
2026-04-14 10:37 47.98501 10.22869 2569 ft 92 kts 245°
2026-04-14 10:37 47.98189 10.22006 2937 ft 93 kts 244°
2026-04-14 10:38 47.98014 10.21054 2929 ft 97 kts 279°
2026-04-14 10:38 47.98336 10.20194 2949 ft 98 kts 324°
2026-04-14 10:38 47.98989 10.19947 2984 ft 101 kts
2026-04-14 10:38 47.99577 10.20503 3035 ft 104 kts 53°
2026-04-14 10:39 47.99947 10.21420 3096 ft 105 kts 58°
2026-04-14 10:39 48.00320 10.22406 3097 ft 113 kts 59°
2026-04-14 10:39 48.00710 10.23439 3098 ft 118 kts 59°
2026-04-14 10:39 48.01117 10.24506 3087 ft 118 kts 59°
2026-04-14 10:40 48.01511 10.25550 3088 ft 114 kts 59°
2026-04-14 10:40 48.01893 10.26575 3082 ft 111 kts 59°
2026-04-14 10:40 48.02063 10.27669 2921 ft 112 kts 99°
2026-04-14 10:40 48.01612 10.28567 2749 ft 104 kts 152°
2026-04-14 10:41 48.00934 10.28595 2579 ft 97 kts 203°
2026-04-14 10:41 48.00461 10.27949 2473 ft 91 kts 244°
2026-04-14 10:41 48.00148 10.27131 2361 ft 91 kts 241°
2026-04-14 10:41 47.99829 10.26334 2266 ft 90 kts 242°
2026-04-14 10:42 47.99506 10.25525 2133 ft 91 kts 243°
2026-04-14 10:42 47.99206 10.24768 2062 ft 67 kts 239°
2026-04-14 10:42 47.98972 10.24180 2065 ft 83 kts 241°
2026-04-14 10:42 47.98658 10.23394 2318 ft 92 kts 244°
2026-04-14 10:43 47.98339 10.22544 2711 ft 93 kts 242°
2026-04-14 10:43 47.97966 10.21709 2777 ft 104 kts 225°
2026-04-14 10:43 47.97281 10.21302 2855 ft 110 kts 180°
2026-04-14 10:43 47.96592 10.21720 3000 ft 108 kts 134°
2026-04-14 10:44 47.96294 10.22714 3041 ft 107 kts 89°
2026-04-14 10:44 47.96503 10.23742 3107 ft 105 kts 60°
2026-04-14 10:44 47.96863 10.24734 3104 ft 110 kts 59°
2026-04-14 10:44 47.97248 10.25753 3100 ft 114 kts 58°
2026-04-14 10:45 47.97650 10.26791 3092 ft 117 kts 58°
2026-04-14 10:45 47.98063 10.27849 3096 ft 118 kts 58°
2026-04-14 10:45 47.98472 10.28910 3100 ft 117 kts 58°
2026-04-14 10:45 47.98981 10.29826 3031 ft 113 kts 23°
2026-04-14 10:46 47.99719 10.29828 2904 ft 108 kts 337°
2026-04-14 10:46 48.00273 10.29092 2674 ft 107 kts 301°
2026-04-14 10:46 48.00433 10.28047 2515 ft 104 kts 268°
2026-04-14 10:46 48.00158 10.27058 2347 ft 104 kts 239°
2026-04-14 10:47 47.99770 10.26174 2213 ft 101 kts 240°
2026-04-14 10:47 47.99420 10.25319 2088 ft 93 kts 243°
2026-04-14 10:47 47.99120 10.24555 2062 ft 71 kts 239°
2026-04-14 10:47 47.98851 10.23876 2118 ft 88 kts 242°
2026-04-14 10:48 47.98514 10.23070 2385 ft 99 kts 241°
2026-04-14 10:48 47.98132 10.22164 2386 ft 106 kts 241°
2026-04-14 10:48 47.98009 10.21123 2442 ft 102 kts 287°
2026-04-14 10:48 47.98415 10.20302 2505 ft 100 kts 332°
2026-04-14 10:49 47.99089 10.20195 2579 ft 100 kts 17°
2026-04-14 10:49 47.99622 10.20877 2893 ft 101 kts 57°
2026-04-14 10:49 47.99963 10.21817 2978 ft 100 kts 58°
2026-04-14 10:49 48.00301 10.22652 2965 ft 93 kts 57°
2026-04-14 10:50 48.00565 10.23529 3119 ft 93 kts 71°
2026-04-14 10:50 48.00836 10.24435 3167 ft 102 kts 61°
2026-04-14 10:50 48.01205 10.25404 3118 ft 111 kts 64°
2026-04-14 10:50 48.01567 10.26412 2971 ft 110 kts 66°
2026-04-14 10:51 48.01786 10.27435 3033 ft 101 kts 108°
2026-04-14 10:51 48.01343 10.28263 2856 ft 108 kts 160°
2026-04-14 10:51 48.00642 10.28376 2829 ft 100 kts 213°
2026-04-14 10:51 48.00250 10.27573 2546 ft 102 kts 259°
2026-04-14 10:52 47.99934 10.26619 2306 ft 105 kts 239°
2026-04-14 10:52 47.99552 10.25714 2329 ft 97 kts 241°
2026-04-14 10:52 47.99207 10.24861 2554 ft 94 kts 242°
2026-04-14 10:52 47.98868 10.24014 2780 ft 95 kts 245°
2026-04-14 10:53 47.98665 10.23438 2958 ft 94 kts 248°
2026-04-14 10:53 47.98329 10.22575 3149 ft 99 kts 240°
2026-04-14 10:53 47.97509 10.22009 3232 ft 111 kts 163°
2026-04-14 10:53 47.97076 10.22445 3203 ft 119 kts 121°
2026-04-14 10:54 47.97036 10.23614 3136 ft 120 kts 65°
2026-04-14 10:54 47.97437 10.24720 3094 ft 120 kts 62°
2026-04-14 10:54 47.97823 10.25817 3103 ft 117 kts 59°
2026-04-14 10:54 47.98229 10.26823 3070 ft 112 kts 56°
2026-04-14 10:55 47.98633 10.27783 3056 ft 107 kts 58°
2026-04-14 10:55 47.98976 10.28755 3053 ft 101 kts 57°
2026-04-14 10:55 47.99533 10.29289 2875 ft 98 kts 358°
2026-04-14 10:55 48.00053 10.28729 2684 ft 101 kts 298°
2026-04-14 10:56 48.00279 10.27729 2554 ft 99 kts 267°
2026-04-14 10:56 48.00020 10.26791 2354 ft 103 kts 236°
2026-04-14 10:56 47.99648 10.25888 2189 ft 102 kts 242°
2026-04-14 10:56 47.99297 10.25000 2065 ft 88 kts 241°
2026-04-14 10:57 47.99040 10.24353 2062 ft 76 kts 240°
2026-04-14 10:57 47.98728 10.23603 2319 ft 87 kts 239°
2026-04-14 10:57 47.98384 10.22789 2685 ft 98 kts 228°
2026-04-14 10:57 47.97768 10.22396 3164 ft 108 kts 184°
2026-04-14 10:58 47.97002 10.22737 3150 ft 116 kts 152°
2026-04-14 10:58 47.96308 10.23325 3300 ft 113 kts 150°
2026-04-14 10:58 47.95639 10.23909 3440 ft 110 kts 150°
2026-04-14 10:58 47.94992 10.24489 3487 ft 113 kts 150°
2026-04-14 10:59 47.94299 10.25099 3487 ft 118 kts 157°
2026-04-14 10:59 47.93505 10.25422 3494 ft 120 kts 172°
2026-04-14 10:59 47.92669 10.25617 3497 ft 123 kts 173°
2026-04-14 10:59 47.91812 10.25816 3488 ft 125 kts 173°
2026-04-14 11:00 47.90991 10.25526 3491 ft 123 kts 219°
2026-04-14 11:00 47.90473 10.24531 3493 ft 124 kts 240°
2026-04-14 11:00 47.90043 10.23434 3498 ft 125 kts 242°
2026-04-14 11:00 47.89606 10.22310 3498 ft 126 kts 242°
2026-04-14 11:01 47.89168 10.21180 3499 ft 126 kts 242°
2026-04-14 11:01 47.88729 10.20045 3494 ft 126 kts 242°
2026-04-14 11:01 47.88290 10.18912 3491 ft 126 kts 242°
2026-04-14 11:01 47.87852 10.17781 3486 ft 126 kts 242°
2026-04-14 11:02 47.87418 10.16653 3491 ft 125 kts 242°
2026-04-14 11:02 47.86984 10.15524 3489 ft 125 kts 242°
2026-04-14 11:02 47.86552 10.14405 3490 ft 125 kts 242°
2026-04-14 11:02 47.86123 10.13293 3492 ft 126 kts 242°
2026-04-14 11:03 47.85685 10.12149 3463 ft 129 kts 242°
2026-04-14 11:03 47.85225 10.10953 3275 ft 136 kts 242°
2026-04-14 11:03 47.84741 10.09706 3092 ft 141 kts 242°
2026-04-14 11:03 47.84242 10.08425 2906 ft 144 kts 242°
2026-04-14 11:04 47.83834 10.07158 3008 ft 119 kts 264°
2026-04-14 11:04 47.83980 10.06023 2948 ft 113 kts 294°
2026-04-14 11:04 47.84302 10.05017 2905 ft 106 kts 298°
2026-04-14 11:04 47.84650 10.04023 2789 ft 109 kts 298°
2026-04-14 11:05 47.85197 10.03392 2804 ft 103 kts
2026-04-14 11:05 47.85726 10.04078 2767 ft 104 kts 56°
2026-04-14 11:05 47.86164 10.04906 2663 ft 101 kts 29°
2026-04-14 11:05 47.86809 10.04849 2537 ft 98 kts 317°
2026-04-14 11:06 47.86961 10.03900 2411 ft 93 kts 257°
2026-04-14 11:06 47.86636 10.03086 2301 ft 92 kts 238°
2026-04-14 11:06 47.86289 10.02312 2168 ft 91 kts 238°
2026-04-14 11:06 47.85967 10.01600 2101 ft 64 kts 233°
2026-04-14 11:07 47.85677 10.00964 2198 ft 83 kts 239°
2026-04-14 11:07 47.85356 10.00214 2503 ft 92 kts 240°
2026-04-14 11:07 47.85040 9.99449 2782 ft 83 kts 241°
2026-04-14 11:07 47.84558 9.98913 2782 ft 93 kts 194°
2026-04-14 11:08 47.83919 9.99069 2786 ft 95 kts 148°
2026-04-14 11:08 47.83693 9.99885 2762 ft 92 kts 69°
2026-04-14 11:08 47.83993 10.00676 2779 ft 89 kts 54°
2026-04-14 11:08 47.84327 10.01449 2781 ft 89 kts 54°
2026-04-14 11:09 47.84668 10.02222 2794 ft 92 kts 53°
2026-04-14 11:09 47.85040 10.03063 2783 ft 100 kts 54°
2026-04-14 11:09 47.85428 10.03933 2785 ft 102 kts 54°
2026-04-14 11:10 47.86397 10.05299 2570 ft 99 kts
2026-04-14 11:10 47.86903 10.04807 2446 ft 91 kts 292°
2026-04-14 11:10 47.86909 10.03891 2336 ft 89 kts 257°
2026-04-14 11:10 47.86634 10.03077 2263 ft 89 kts 239°
2026-04-14 11:11 47.86287 10.02310 2164 ft 90 kts 239°
2026-04-14 11:11 47.85980 10.01629 2099 ft 60 kts 234°
2026-04-14 11:11 47.85819 10.01271 2101 ft 24 kts 234°
2026-04-14 11:11 47.85791 10.01176 2100 ft 7 kts 317°
2026-04-14 11:12 47.85829 10.01137 2100 ft 6 kts 328°
2026-04-14 11:12 47.85864 10.01098 2100 ft 6 kts 305°
2026-04-14 11:12 47.85885 10.01084 2100 ft 2 kts 57°
2026-04-14 11:12 47.85886 10.01102 2101 ft 2 kts 157°
2026-04-14 11:13 47.85884 10.01103 2101 ft 0 kts 184°
2026-04-14 13:43 47.85895 10.01104 2096 ft 0 kts 184°
2026-04-14 13:43 47.85876 10.01070 2095 ft 0 kts 236°
2026-04-14 13:43 47.85893 10.01108 2096 ft 0 kts 236°
2026-04-14 13:44 47.85903 10.01087 2095 ft 0 kts 221°
2026-04-14 13:45 47.85887 10.01105 2094 ft 0 kts 200°
2026-04-14 13:45 47.85910 10.01113 2096 ft 0 kts 192°
2026-04-14 13:45 47.85905 10.01111 2097 ft 0 kts 192°
2026-04-14 13:45 47.85905 10.01095 2097 ft 0 kts 184°
2026-04-14 13:46 47.85893 10.01100 2096 ft 0 kts 236°
2026-04-14 13:46 47.85884 10.01115 2094 ft 0 kts 236°
2026-04-14 13:46 47.85893 10.01105 2096 ft 0 kts 236°
2026-04-14 13:46 47.85888 10.01092 2096 ft 0 kts 236°
2026-04-14 13:47 47.85882 10.01079 2094 ft 0 kts 236°
2026-04-14 13:47 47.85901 10.01120 2095 ft 0 kts 236°
2026-04-14 13:48 47.85891 10.01098 2096 ft 0 kts 236°
2026-04-14 13:48 47.85891 10.01099 2096 ft 0 kts 236°